Temperature
1 1 1 1 0 0 -0 1 1 1 0 0 -0 -2 -3 -3 -4 -4 -4 -4 -5 -5 -5 -5 -5 -5 -4 -4 -4 -4 -4 -4 -4 -3 -3 -3 -3 -3 -2 -2 -2 -1 -1 -1
-0 -0 -0 -0 -0 -0 -1 -0 -1 -1 -0 -1 -3 -3 -4 -4 -4 -4 -5 -5 -5 -5 -5 -5 -5 -5 -5 -5 -5 -5 -4 -4 -4 -4 -4 -4 -4 -3 -3 -2 -2 -2 -2 -1
1 -1 -1 0 -0 -1 -1 -1 -1 -1 -0 -2 -3 -3 -4 -4 -5 -5 -5 -6 -6 -6 -6 -6 -6 -6 -5 -5 -5 -5 -5 -5 -5 -5 -5 -4 -4 -4 -4 -3 -3 -3 -2 -2
-0 -1 -0 1 -2 -2 -2 -2 -2 -2 -2 -3 -4 -5 -5 -5 -5 -6 -6 -6 -6 -6 -6 -6 -6 -6 -6 -6 -5 -5 -5 -5 -5 -5 -5 -5 -5 -4 -4 -4 -4 -3 -3 -2
-1 -0 1 -0 -2 -3 -3 -2 -3 -3 -3 -4 -5 -5 -4 -5 -6 -6 -7 -7 -7 -7 -7 -6 -7 -7 -6 -6 -6 -6 -6 -6 -6 -6 -5 -5 -5 -5 -5 -5 -4 -4 -4 -3
-2 -1 0 0 -3 -4 -3 -2 -3 -4 -4 -5 -5 -3 -3 -6 -6 -7 -7 -7 -7 -7 -7 -7 -7 -7 -7 -7 -7 -6 -6 -6 -6 -6 -6 -6 -6 -5 -5 -5 -5 -5 -4 -4
-2 -1 -0 -2 -4 -4 -2 -1 -4 -5 -5 -6 -6 -5 -6 -7 -7 -7 -7 -8 -8 -7 -7 -7 -8 -7 -7 -7 -7 -7 -7 -7 -7 -6 -6 -6 -6 -6 -6 -6 -5 -5 -5 -4
-3 -2 -1 -4 -4 -3 -3 -5 -5 -6 -6 -7 -7 -7 -7 -7 -8 -8 -8 -8 -8 -8 -8 -8 -8 -8 -8 -8 -8 -7 -7 -7 -7 -7 -7 -7 -6 -6 -6 -6 -6 -6 -6 -5
-2 -1 -4 -5 -5 -5 -5 -6 -6 -7 -7 -7 -8 -8 -8 -8 -8 -8 -8 -8 -8 -8 -8 -8 -8 -8 -8 -8 -8 -8 -8 -8 -8 -7 -7 -7 -7 -7 -7 -7 -7 -7 -6 -6
-5 -4 -5 -6 -6 -6 -6 -7 -7 -7 -8 -8 -8 -8 -8 -8 -9 -9 -9 -9 -9 -9 -9 -9 -9 -9 -9 -9 -9 -9 -8 -8 -8 -8 -8 -8 -7 -7 -7 -8 -7 -7 -7 -7
-5 -5 -6 -6 -6 -7 -7 -7 -7 -8 -8 -8 -9 -9 -9 -9 -9 -9 -9 -9 -9 -9 -9 -9 -9 -9 -9 -9 -9 -9 -9 -9 -9 -9 -9 -8 -8 -8 -8 -8 -8 -8 -7 -7
-4 -5 -6 -6 -7 -7 -7 -8 -8 -8 -8 -9 -9 -9 -9 -9 -10 -10 -10 -10 -10 -10 -10 -10 -10 -10 -9 -9 -10 -10 -9 -9 -9 -9 -9 -9 -9 -8 -8 -8 -8 -8 -8 -8
-7 -7 -7 -7 -7 -8 -8 -8 -8 -9 -9 -9 -9 -9 -10 -10 -10 -10 -10 -10 -10 -10 -10 -10 -10 -10 -10 -10 -10 -10 -10 -10 -10 -10 -10 -10 -9 -9 -9 -8 -8 -8 -8 -8
-7 -8 -8 -8 -8 -8 -8 -9 -9 -9 -9 -9 -10 -10 -10 -10 -10 -10 -11 -11 -11 -11 -11 -11 -10 -10 -11 -11 -10 -10 -10 -10 -10 -10 -10 -10 -10 -10 -9 -9 -9 -8 -8 -8
-8 -8 -8 -8 -8 -9 -9 -9 -9 -9 -10 -10 -10 -10 -11 -11 -11 -11 -11 -11 -11 -11 -11 -11 -11 -11 -11 -11 -11 -11 -11 -11 -10 -10 -10 -10 -10 -10 -10 -10 -9 -9 -9 -9
-8 -8 -9 -9 -9 -9 -9 -10 -10 -10 -10 -10 -11 -11 -11 -11 -11 -11 -11 -11 -11 -11 -11 -11 -11 -11 -11 -11 -11 -11 -11 -11 -11 -11 -11 -11 -11 -11 -10 -10 -10 -10 -10 -9
-9 -9 -9 -9 -9 -10 -10 -10 -10 -10 -11 -11 -11 -11 -11 -11 -11 -11 -12 -12 -12 -12 -12 -12 -12 -12 -12 -12 -12 -12 -12 -11 -11 -11 -11 -11 -11 -11 -11 -11 -10 -10 -10 -10
-9 -9 -9 -9 -10 -10 -10 -10 -11 -11 -11 -11 -11 -11 -12 -12 -12 -12 -12 -12 -12 -12 -12 -12 -12 -12 -12 -12 -12 -12 -12 -12 -12 -12 -12 -12 -11 -11 -11 -11 -11 -11 -11 -10
-9 -9 -10 -10 -10 -10 -10 -11 -11 -11 -11 -11 -12 -12 -12 -12 -12 -12 -12 -12 -12 -12 -12 -12 -12 -12 -12 -12 -12 -12 -12 -12 -12 -12 -12 -12 -12 -12 -11 -11 -11 -11 -11 -11
-9 -10 -10 -10 -10 -11 -11 -11 -11 -11 -12 -12 -12 -12 -12 -12 -12 -12 -13 -13 -13 -13 -13 -13 -13 -13 -13 -13 -13 -13 -13 -13 -12 -12 -12 -12 -12 -12 -12 -12 -12 -12 -11 -11
-10 -10 -10 -10 -11 -11 -11 -11 -12 -12 -12 -12 -12 -12 -12 -13 -13 -13 -13 -13 -13 -13 -13 -13 -13 -13 -13 -13 -13 -13 -13 -13 -13 -13 -13 -13 -13 -13 -12 -12 -12 -12 -12 -12
-10 -10 -11 -11 -11 -11 -11 -12 -12 -12 -12 -12 -13 -13 -13 -13 -13 -13 -13 -13 -13 -13 -13 -13 -13 -13 -13 -13 -13 -13 -13 -13 -13 -13 -13 -13 -13 -13 -13 -13 -13 -12 -12 -12
-11 -11 -11 -11 -11 -12 -12 -12 -12 -12 -12 -13 -13 -13 -13 -13 -13 -13 -13 -13 -13 -13 -14 -14 -14 -14 -14 -14 -13 -13 -13 -13 -13 -13 -13 -13 -13 -13 -13 -13 -13 -13 -13 -12
-11 -11 -11 -12 -12 -12 -12 -12 -12 -12 -13 -13 -13 -13 -13 -13 -13 -14 -14 -14 -14 -14 -14 -14 -14 -14 -14 -14 -14 -14 -14 -14 -14 -14 -13 -13 -13 -13 -13 -13 -13 -13 -13 -13
-11 -11 -12 -12 -12 -12 -12 -12 -13 -13 -13 -13 -13 -13 -13 -14 -14 -14 -14 -14 -14 -14 -14 -14 -14 -14 -14 -14 -14 -14 -14 -14 -14 -14 -14 -14 -13 -13 -13 -13 -13 -13 -13 -13
-12 -12 -12 -12 -12 -13 -13 -13 -13 -13 -13 -13 -13 -13 -14 -14 -14 -14 -14 -14 -14 -14 -14 -14 -14 -14 -14 -14 -14 -14 -14 -14 -14 -14 -14 -14 -14 -14 -14 -13 -13 -13 -13 -13
-12 -12 -12 -13 -13 -13 -13 -13 -13 -13 -13 -13 -14 -14 -14 -14 -14 -14 -14 -14 -14 -14 -14 -14 -14 -14 -14 -14 -14 -14 -14 -14 -14 -14 -14 -14 -14 -14 -14 -14 -13 -13 -13 -13
Wind_Speed
9 9 8 9 10 9 10 10 10 10 11 11 9 9 9 8 8 8 8 8 8 9 9 9 9 9 9 10 10 9 9 9 9 10 10 9 9 9 9 8 8 8 7 7
6 6 7 9 10 10 11 10 11 13 13 8 7 6 8 8 8 8 9 9 10 10 10 9 9 10 10 10 10 10 9 9 9 9 9 9 9 9 9 8 8 7 7 6
5 4 6 8 7 8 7 7 7 9 7 5 7 8 9 9 8 8 9 10 11 10 10 11 10 10 10 10 10 9 9 9 9 9 9 9 9 9 8 8 8 7 7 6
4 4 7 1 2 3 6 8 8 8 8 7 8 9 8 7 7 9 10 11 11 11 11 10 9 9 10 10 9 9 9 9 9 9 10 9 9 9 9 8 7 6 6 6
3 5 8 3 2 2 4 6 5 7 8 7 8 8 5 3 6 8 10 10 10 10 10 10 9 9 9 9 9 9 9 9 9 9 10 9 9 9 8 8 7 6 6 5
4 5 6 1 2 1 2 5 2 3 6 6 5 6 5 6 8 9 9 9 10 10 10 9 9 9 9 9 9 9 9 9 9 9 9 9 9 9 8 7 7 6 6 5
7 7 7 1 2 3 4 3 0 3 5 4 5 6 7 9 9 8 9 10 10 9 9 9 9 9 9 9 10 10 9 9 9 9 9 9 9 8 7 7 7 6 5 5
5 7 6 4 4 4 3 2 2 4 4 5 7 8 8 8 9 9 10 10 10 9 9 9 9 8 9 10 10 10 9 9 9 9 8 7 8 7 7 6 6 6 5 5
6 5 1 4 3 2 1 3 4 5 5 6 7 8 8 8 9 9 9 9 9 9 10 9 9 8 10 10 10 9 9 9 8 8 7 7 7 7 6 5 4 5 5 5
5 7 4 5 4 3 3 4 5 5 6 5 6 7 8 8 9 9 9 9 9 10 10 10 10 9 9 10 9 8 9 9 8 7 7 7 6 5 5 5 5 5 5 5
7 6 4 3 4 4 4 4 4 5 4 5 6 7 8 8 8 8 8 8 8 9 9 11 10 10 10 9 9 8 8 8 7 6 6 6 6 5 6 5 5 5 5 4
5 2 3 3 3 3 3 4 5 5 5 5 5 6 7 7 7 8 8 8 9 9 10 10 10 10 9 9 8 8 7 7 6 6 5 5 5 6 7 7 8 8 8 7
2 2 3 4 4 3 4 4 4 4 5 6 5 5 6 7 7 8 8 8 9 9 10 10 10 10 9 9 8 7 7 7 6 6 5 5 5 5 6 7 8 7 8 8
2 1 3 2 2 3 3 3 3 3 4 4 5 5 6 6 7 8 8 8 9 9 9 9 9 9 9 8 8 8 8 7 7 6 5 5 5 5 5 5 6 6 7 8
3 3 3 3 3 2 2 2 3 4 4 5 5 5 6 7 8 8 8 8 8 8 8 8 9 9 9 8 8 8 7 6 6 6 5 5 5 5 5 5 5 5 5 6
3 2 2 2 3 3 3 3 4 5 5 5 6 6 6 7 7 8 7 7 7 8 9 9 9 9 9 8 8 7 6 8 8 6 5 5 4 4 4 5 5 4 4 5
2 2 3 4 4 4 4 4 4 5 5 6 6 7 7 7 7 7 7 7 7 8 8 8 9 9 8 8 7 6 6 7 8 6 5 5 5 5 4 4 4 4 4 5
4 4 4 4 4 4 5 4 4 5 5 6 6 6 6 6 7 8 8 8 8 8 7 8 8 9 8 7 7 6 6 6 5 5 5 5 5 5 4 4 5 5 4 5
3 3 3 3 3 3 4 4 5 5 5 5 5 6 6 7 7 8 8 7 8 8 8 8 11 9 8 8 8 5 5 6 6 5 5 6 5 5 5 5 5 4 4 4
1 1 2 2 2 2 3 4 4 5 5 5 5 6 7 7 7 7 7 7 6 6 8 9 9 8 8 7 8 5 5 5 5 5 5 4 5 5 4 4 4 4 4 4
1 1 2 2 3 3 3 4 4 5 5 5 5 6 7 8 7 6 6 6 6 7 8 10 7 7 7 7 7 4 5 5 5 5 5 4 4 4 4 4 4 4 4 4
1 2 2 3 3 4 4 4 4 5 5 5 6 6 7 7 7 6 6 6 7 10 8 7 6 8 9 7 4 4 5 5 5 4 4 4 4 4 4 4 4 4 4 4
2 2 3 3 3 4 4 4 4 4 5 6 6 6 7 7 6 6 6 5 6 10 8 6 9 12 11 5 4 4 5 5 5 5 4 4 4 4 4 5 4 4 4 4
2 2 3 3 3 3 4 5 5 5 5 6 6 6 6 6 6 5 6 9 10 11 7 9 12 11 9 4 4 4 5 5 5 5 5 4 4 4 4 4 4 4 4 5
2 2 2 2 3 3 5 5 5 5 5 5 6 6 5 5 5 6 6 7 9 9 7 8 10 10 6 5 5 5 5 5 5 5 4 4 4 4 4 4 4 5 5 5
2 2 2 3 3 4 4 4 4 4 5 5 5 5 5 5 5 5 5 6 8 8 7 6 6 7 5 5 5 5 5 5 5 4 4 5 5 5 5 5 6 5 5 5
2 2 2 3 3 3 3 4 4 5 5 5 6 6 5 5 5 5 6 6 6 6 5 5 5 5 5 5 5 5 5 5 5 5 5 5 5 5 5 6 5 5 6 6
Wind_Direction
269 278 270 264 260 246 238 247 258 273 278 290 305 310 310 312 314 316 320 322 322 323 323 320 321 322 321 322 323 323 321 320 320 321 320 317 316 316 314 310 305 294 288 278
271 268 274 267 260 249 247 250 257 273 278 293 310 308 309 314 316 315 318 321 320 324 325 321 320 319 319 320 322 320 319 318 320 321 321 320 319 318 316 314 310 305 296 284
267 296 291 263 246 227 231 234 240 259 281 314 310 310 312 315 315 313 317 320 322 324 321 319 317 317 316 314 316 317 316 317 321 322 321 321 320 319 317 315 311 306 300 289
276 290 252 256 118 218 240 249 239 259 284 296 303 307 298 304 315 320 321 320 320 319 317 317 316 316 314 314 314 315 316 317 320 321 320 322 322 321 318 315 312 309 307 297
236 262 272 262 199 193 233 264 242 256 278 297 315 305 293 330 331 321 319 317 316 316 314 316 316 317 315 314 316 315 317 316 317 318 317 319 319 318 317 315 315 315 308 305
223 253 264 275 119 149 220 263 203 245 282 303 313 302 317 339 327 321 321 322 321 320 319 319 319 318 314 315 316 315 315 313 313 313 312 313 314 315 316 316 314 316 311 308
231 247 267 250 154 180 238 303 3 268 280 284 276 286 308 316 316 318 320 321 322 321 320 320 322 320 315 314 315 316 314 312 311 312 312 312 314 316 319 321 321 322 323 321
211 232 254 142 165 213 275 352 292 284 284 284 286 296 305 311 315 320 322 324 325 323 322 323 324 322 317 314 316 317 315 312 312 314 316 315 317 319 320 320 322 328 331 332
214 235 335 179 219 257 291 284 291 289 290 288 292 297 306 310 313 317 320 323 324 322 321 324 327 324 317 317 319 317 315 315 315 317 318 318 318 318 319 320 322 326 330 331
251 260 261 247 250 267 277 279 288 290 290 287 288 296 303 307 311 317 321 323 324 324 324 325 327 326 321 321 320 316 314 317 318 320 323 326 324 321 320 320 321 324 327 328
252 274 288 242 247 274 282 283 290 295 291 287 289 296 302 306 311 315 318 322 323 322 322 323 326 326 326 326 323 319 317 317 318 321 322 327 329 327 322 318 318 317 318 318
247 248 251 277 280 273 277 287 290 292 293 295 292 296 303 304 309 313 316 320 322 322 322 323 326 327 329 329 325 322 321 322 322 323 323 325 328 331 337 335 337 337 338 335
261 294 271 282 283 273 283 288 296 291 290 297 301 301 302 303 309 312 315 319 320 320 320 322 325 327 331 332 328 324 321 320 320 321 321 322 325 327 329 338 344 345 348 348
241 260 272 265 275 288 287 294 299 298 298 298 302 305 305 306 310 313 315 318 317 317 319 322 324 326 330 331 329 325 322 319 319 318 318 317 320 321 321 325 330 336 343 348
243 249 259 281 287 292 298 301 302 304 309 311 310 309 311 311 311 312 314 318 318 318 321 325 325 326 331 331 327 323 322 321 321 319 317 318 320 320 322 323 321 324 332 339
272 269 258 268 282 295 298 294 293 299 306 308 310 312 312 308 307 309 315 320 320 319 321 322 320 322 328 327 324 322 321 324 326 321 321 323 323 321 321 321 321 324 330 334
208 249 259 270 279 285 286 286 286 292 299 302 306 310 311 310 311 314 317 319 314 309 311 314 316 321 322 323 322 319 318 322 328 324 324 323 321 320 318 318 319 319 323 331
231 242 243 249 259 271 283 290 290 294 297 301 307 307 307 308 308 310 313 315 314 314 317 319 320 321 320 322 320 315 314 316 321 321 322 322 322 320 319 318 319 319 321 328
233 244 256 263 264 264 274 285 291 295 299 302 303 300 299 299 300 304 308 310 311 314 321 323 323 323 320 321 321 312 311 314 319 320 319 321 323 323 323 322 319 317 318 324
271 284 289 295 295 281 281 290 295 297 299 299 297 299 301 303 305 306 307 301 298 303 310 314 317 318 317 315 316 311 313 314 315 315 316 316 316 318 320 321 321 320 319 322
283 299 301 303 304 299 294 295 294 296 301 299 294 295 298 303 305 304 303 304 311 315 314 316 319 317 313 313 316 315 314 312 311 310 311 311 311 312 313 315 317 318 320 324
288 291 297 301 303 305 306 300 293 294 299 299 297 297 299 303 307 304 293 291 306 316 320 315 314 315 319 321 314 311 310 308 308 306 305 305 304 305 308 312 313 313 313 313
292 294 297 298 299 303 308 305 300 298 297 298 299 300 300 300 302 301 305 307 310 314 317 311 315 320 324 322 310 306 304 303 303 303 302 301 299 299 300 302 303 303 303 305
297 303 305 309 310 310 313 315 311 304 298 296 294 295 297 299 298 291 292 306 315 314 311 312 319 324 328 321 311 307 304 303 301 299 298 297 296 296 295 296 297 298 297 298
299 304 309 313 310 306 307 313 313 311 311 308 307 307 301 293 291 300 303 306 312 314 311 314 319 324 322 309 305 302 300 298 299 299 296 296 295 294 292 291 291 291 290 290
306 299 296 294 297 303 308 309 310 313 313 313 315 313 311 307 302 302 303 306 307 311 312 309 311 313 309 304 300 298 297 299 302 300 294 292 290 290 288 289 289 286 285 283
310 310 311 311 310 309 306 304 304 307 309 307 308 313 316 315 313 311 309 308 309 309 308 307 307 306 305 302 299 297 296 294 293 291 291 289 286 285 285 285 284 283 281 279
Height
1548 1547 1547 1546 1546 1546 1546 1540 1537 1529 1531 1530 1532 1533 1531 1530 1528 1525 1523 1520 1518 1515 1512 1509 1506 1503 1500 1496 1493 1490 1486 1483 1480 1477 1474 1471 1468 1465 1463 1461 1459 1457 1455 1454
1548 1547 1546 1544 1542 1542 1542 1541 1538 1535 1532 1532 1533 1532 1529 1527 1525 1523 1520 1518 1515 1512 1509 1506 1503 1500 1496 1493 1490 1487 1483 1480 1477 1474 1471 1468 1465 1462 1459 1456 1454 1452 1451 1450
1542 1546 1545 1536 1535 1537 1538 1537 1537 1532 1531 1532 1531 1530 1528 1526 1524 1521 1519 1516 1513 1509 1507 1503 1500 1497 1494 1490 1487 1484 1481 1478 1474 1471 1468 1465 1462 1459 1456 1453 1450 1448 1446 1445
1545 1545 1540 1531 1537 1536 1536 1534 1535 1533 1532 1532 1531 1528 1526 1524 1522 1519 1517 1513 1510 1507 1504 1501 1497 1494 1491 1488 1484 1481 1478 1475 1472 1468 1465 1462 1459 1456 1453 1450 1447 1444 1443 1442
1546 1538 1528 1531 1535 1536 1536 1532 1532 1532 1531 1530 1528 1525 1523 1521 1520 1518 1515 1512 1508 1505 1501 1497 1494 1491 1488 1485 1481 1479 1476 1472 1469 1466 1463 1459 1456 1453 1450 1447 1444 1442 1441 1439
1545 1539 1528 1527 1535 1535 1537 1529 1529 1530 1529 1528 1527 1523 1521 1520 1518 1515 1512 1509 1505 1501 1498 1494 1491 1488 1485 1482 1479 1476 1473 1470 1467 1464 1461 1457 1454 1451 1448 1445 1443 1441 1439 1437
1542 1537 1526 1531 1534 1535 1532 1525 1529 1528 1528 1527 1526 1524 1522 1518 1516 1513 1510 1506 1502 1498 1495 1492 1488 1485 1482 1479 1476 1473 1470 1467 1464 1461 1458 1455 1452 1449 1447 1444 1441 1439 1437 1435
1540 1536 1529 1531 1532 1531 1527 1527 1527 1526 1526 1525 1523 1521 1518 1516 1513 1510 1507 1503 1500 1496 1493 1489 1486 1482 1479 1476 1474 1470 1467 1464 1461 1459 1456 1453 1450 1447 1445 1442 1440 1437 1435 1433
1532 1528 1528 1528 1527 1527 1527 1526 1525 1524 1523 1522 1520 1518 1516 1513 1510 1507 1504 1501 1497 1493 1490 1487 1483 1480 1477 1473 1470 1467 1464 1461 1459 1456 1453 1451 1448 1446 1443 1441 1439 1437 1434 1432
1531 1526 1526 1526 1525 1525 1524 1524 1523 1522 1520 1519 1517 1515 1513 1510 1507 1504 1501 1498 1495 1491 1487 1484 1481 1477 1474 1470 1467 1465 1462 1459 1456 1453 1451 1449 1447 1444 1442 1440 1438 1436 1434 1432
1528 1524 1524 1523 1523 1522 1522 1521 1520 1519 1517 1516 1514 1512 1510 1507 1504 1501 1498 1495 1492 1489 1485 1481 1478 1475 1472 1468 1465 1463 1460 1457 1454 1452 1449 1447 1445 1443 1441 1439 1438 1436 1434 1432
1521 1522 1523 1521 1520 1520 1519 1518 1517 1516 1514 1513 1511 1509 1507 1504 1502 1499 1495 1492 1489 1486 1482 1479 1475 1472 1469 1466 1463 1460 1457 1455 1453 1450 1448 1445 1443 1442 1440 1439 1437 1435 1433 1432
1521 1520 1520 1519 1518 1518 1517 1516 1514 1513 1511 1510 1508 1506 1504 1501 1499 1496 1493 1490 1486 1483 1480 1477 1473 1470 1467 1464 1461 1459 1456 1454 1451 1449 1446 1444 1442 1440 1438 1437 1436 1434 1432 1430
1518 1518 1517 1516 1516 1515 1514 1513 1512 1510 1509 1507 1505 1503 1501 1498 1496 1493 1490 1487 1484 1481 1478 1474 1471 1468 1465 1462 1459 1457 1455 1452 1450 1448 1446 1444 1442 1440 1438 1435 1433 1431 1430 1428
1516 1516 1515 1514 1514 1513 1512 1510 1509 1507 1506 1504 1502 1500 1498 1495 1493 1490 1487 1484 1481 1478 1475 1472 1469 1466 1463 1460 1458 1455 1453 1451 1448 1446 1444 1442 1440 1439 1437 1435 1433 1430 1429 1427
1513 1513 1512 1512 1511 1510 1509 1508 1506 1504 1503 1501 1499 1497 1495 1492 1490 1487 1484 1482 1479 1476 1473 1470 1467 1464 1461 1459 1456 1453 1451 1449 1447 1445 1443 1441 1439 1437 1436 1434 1432 1430 1428 1426
1511 1510 1509 1509 1508 1507 1506 1505 1503 1502 1500 1498 1496 1494 1492 1489 1487 1484 1482 1479 1476 1473 1471 1468 1465 1462 1460 1457 1454 1452 1450 1447 1445 1443 1441 1439 1438 1436 1434 1432 1431 1429 1427 1426
1509 1508 1507 1506 1505 1504 1503 1502 1500 1499 1497 1495 1493 1491 1488 1486 1483 1481 1478 1476 1473 1471 1468 1465 1462 1460 1457 1455 1453 1450 1448 1446 1444 1442 1440 1438 1436 1435 1433 1431 1429 1427 1426 1424
1506 1506 1505 1504 1503 1502 1500 1499 1497 1496 1494 1492 1490 1488 1485 1483 1481 1478 1475 1473 1470 1467 1465 1463 1460 1458 1455 1453 1451 1449 1447 1444 1442 1440 1438 1437 1435 1433 1431 1430 1428 1426 1424 1423
1503 1503 1502 1501 1500 1499 1498 1496 1495 1493 1491 1489 1487 1484 1482 1480 1478 1475 1472 1470 1468 1465 1462 1460 1458 1455 1453 1451 1449 1447 1445 1443 1441 1439 1437 1435 1433 1431 1430 1428 1426 1425 1423 1422
1501 1501 1500 1499 1498 1497 1495 1494 1492 1490 1488 1486 1483 1481 1479 1477 1474 1472 1469 1467 1465 1463 1460 1458 1455 1453 1451 1449 1447 1445 1443 1441 1439 1437 1435 1433 1432 1430 1428 1427 1425 1424 1422 1421
1499 1498 1497 1496 1495 1494 1492 1491 1489 1487 1485 1482 1480 1478 1476 1473 1471 1469 1467 1465 1462 1460 1457 1455 1453 1451 1449 1447 1445 1443 1441 1439 1437 1435 1433 1432 1430 1428 1427 1425 1424 1422 1421 1420
1497 1496 1495 1494 1493 1491 1490 1488 1486 1484 1481 1479 1477 1475 1473 1470 1468 1466 1463 1462 1459 1457 1455 1452 1450 1448 1446 1444 1442 1440 1438 1436 1435 1433 1431 1430 1428 1427 1425 1424 1422 1421 1420 1418
1495 1494 1493 1492 1490 1489 1487 1485 1483 1481 1479 1476 1474 1472 1469 1467 1465 1463 1461 1458 1456 1454 1452 1450 1448 1445 1443 1441 1439 1437 1436 1434 1433 1431 1429 1428 1426 1425 1423 1422 1420 1419 1418 1416
1493 1492 1491 1489 1488 1486 1484 1482 1480 1478 1476 1474 1471 1469 1466 1464 1462 1459 1457 1455 1453 1451 1449 1447 1445 1443 1440 1438 1437 1435 1433 1432 1430 1429 1427 1425 1424 1422 1421 1420 1418 1417 1415 1414
1491 1490 1488 1487 1486 1484 1482 1480 1478 1475 1473 1470 1468 1466 1464 1461 1459 1456 1454 1452 1450 1448 1446 1444 1442 1440 1438 1436 1434 1432 1431 1429 1428 1426 1425 1423 1421 1420 1419 1417 1416 1415 1413 1412
1489 1487 1486 1485 1483 1481 1479 1477 1475 1473 1470 1468 1465 1463 1461 1458 1456 1454 1451 1449 1447 1445 1443 1441 1439 1437 1435 1433 1431 1430 1428 1426 1425 1423 1422 1420 1419 1417 1416 1415 1413 1412 1411 1409